Weather Roundup
Issued by NWS Chicago, IL

Home | Current Version | Previous Version | Graphics & Text | Print | Product List | Glossary On
Versions: 1 2 3 4 5 6 7 8 9 10 11 12 13 14 15 16 17 18 19 20 21 22 23 24 25 26 27 28 29 30 31 32 33 34 35 36 37 38 39 40 41 42 43 44 45 46 47 48 49 50
000
NZUS59 KLOT 220108
HRRLOT

CHICAGO AREA WEATHER ROUNDUP
NATIONAL WEATHER SERVICE CHICAGO/ROMEOVILLE IL
700 PM CST TUE FEB 21 2017

NOTE: "FAIR" INDICATES FEW OR NO CLOUDS BELOW 12,000 FEET WITH NO
SIGNIFICANT WEATHER AND/OR OBSTRUCTIONS TO VISIBILITY.

* THESE STATIONS ARE NOT UNDER NWS QUALITY CONTROL. THEY ALSO MAY NOT
  REPORT WEATHER SUCH AS PRECIPITATION OR FOG.

ILZ005-006-012>014-019>023-220200-
NORTHEAST ILLINOIS

CITY           SKY/WX    TMP DP  RH WIND       PRES   REMARKS
OHARE          MOCLDY    58  50  75 SW3       29.90R
MIDWAY         MOCLDY    60  52  74 SW3       29.90S
AURORA         PTCLDY    52  49  89 S3        29.90R
LANSING*       PTCLDY    55  53  94 S5        29.91S
JOLIET*        PTCLDY    55  55  98 CALM      29.91S FOG
WAUKEGAN       FOG       49  48  97 CALM      29.89R VSB 1/4
DUPAGE AIRPORT PTCLDY    49  46  90 CALM      29.90R
WHEELING       PTCLDY    55  47  74 CALM      29.90S
KANKAKEE*      CLEAR     55  53  93 CALM      29.92S
MORRIS*        PTCLDY    58  55  90 CALM      29.90S
LEWIS AIRPORT* PTCLDY    57  56  95 CALM      29.90S
NORTHERLY ISL    N/A     47  46  97 S8          N/A
$$

WIZ051-052-058>065-066-070>072-220200-
SOUTHEAST WISCONSIN

CITY           SKY/WX    TMP DP  RH WIND       PRES   REMARKS
MILWAUKEE      MOCLDY    46  44  93 SE3       29.88F FOG
KENOSHA*       MOCLDY    46  43  89 SE3       29.89R
RACINE*        FOG       45  43  93 S8        29.91S VSB 1/4
WAUKESHA       CLEAR     55  30  38 SW3       29.89F
WEST BEND      PTCLDY    46  32  57 SE3       29.87S
$$

INZ001>003-010>013-019-020-220200-
NORTHWEST INDIANA

CITY           SKY/WX    TMP DP  RH WIND       PRES   REMARKS
GARY*          MOCLDY    57  52  82 CALM      29.92R
MICHIGAN CITY* NOT AVBL
RENSSELAER*    NOT AVBL
VALPARAISO     PTCLDY    58  53  84 S7        29.92S
$$

LMZ740>746-220200-
SOUTHERN LAKE MICHIGAN

STATION/POSITION TIME  SKY/WX   TEMP WIND        PRES    VSBY
                                AIR  DIR/SP/G
                 (UTC)          (F)  (DEG/KT/KT) (MB)    (MI)
HARRISON CRIB    0040            51  160/ 11/ 12   N/A
BURNHAM HARBOR   0100            48  150/  7/  9   N/A
CALUMET HARBOR   0036            51  130/  2/  5 1012.3S
BURNS HARBOR     0040            56  110/  1/  6 1013.5S
MICHIGAN CITY    0040            56   90/  2/  3   N/A
$$

ABBREVIATIONS USED IN REMARKS
   TC - TEMPERATURE IN CELSIUS
  WCI - WIND CHILL INDEX
   HX - HEAT INDEX
  VSB - VISIBILITY
$$




USA.gov is the U.S. government's official web portal to all federal, state and local government web resources and services.